Content
SEND FEEDBACK

Finland Flag

KOKKOLA, FINLAND


Home > Europe > Finland
Elevation: 82 feet     Latitude: 63 43N     Longitude: 023 08E

WEATHER
 
SELECT A DAY
Number of Records: 275,969;   Date Range: 8/24/98 - 3/22/16
 
SHARE

PRINT THIS DATA

[ ← Previous Day ]
WEATHER ALMANAC - FEBRUARY 12, 2013
[ Next Day → ]
[ °C ]   °F
Weather ElementAverageHighLow
Temperature19.4 °F23 °F (7:20 pm)15.8 °F (6:20 am)
Dewpoint18.1 °F23 °F (10:20 pm)14 °F (7:20 am)
Humidity94.8 %100 % (1:20 am)93 % (1:50 am)
Barometer30.32 in30.39 in (9:20 pm)30.24 in (1:20 am)
Wind Speed4.2 mph6.9 mph (2:20 am)
Weather ElementAverage
Visibility6.1 mi
Wind DirectionNNE (38 °)

Weather ElementTotal
Precipitation---
Heating Degree Days45.6 (Base 65)
Averaged from 44 records on February 12, 2013
WEATHER CONDITIONS BREAKOUT
WIND DIRECTION BREAKOUT
WEATHER BY HOUR - FEBRUARY 12, 2013
[ °C ]   °F
Local TimeTemperatureDewpointHumidityBarometerVisibilityWind DirectionWind SpeedGust SpeedPrecipitationEventsConditions
1:20 AM19.4 °F19.4 °F100 %30.24 in6.2 miNNE (30°)4.6 mphMostly Cloudy
1:50 AM19.4 °F17.6 °F93 %30.24 in6.2 miNNE (20°)5.8 mphSnowLight Snow Showers
2:20 AM19.4 °F17.6 °F93 %30.24 in6.2 miNNE (20°)6.9 mphSnowLight Snow Showers
2:50 AM19.4 °F17.6 °F93 %30.24 in6.2 miNNE (20°)6.9 mphSnowLight Snow Showers
3:20 AM19.4 °F17.6 °F93 %30.27 in6.2 miNNE (30°)4.6 mphSnowLight Snow Showers
3:50 AM17.6 °F17.6 °F100 %30.27 in6.2 miNE (40°)4.6 mphSnowLight Snow
4:20 AM17.6 °F17.6 °F100 %30.27 in6.2 miNNE (30°)4.6 mphMostly Cloudy
4:50 AM17.6 °F15.8 °F93 %30.27 in6.2 miNorth (10°)5.8 mphSnowLight Snow Showers
5:20 AM17.6 °F15.8 °F93 %30.27 in5.0 miNorth (10°)5.8 mphSnowLight Snow Showers
5:50 AM17.6 °F15.8 °F93 %30.27 in6.2 miNNE (30°)4.6 mphSnowLight Snow Showers
6:20 AM15.8 °F15.8 °F100 %30.27 inNNE (20°)4.6 mphSnowLight Snow Showers
6:50 AM15.8 °F15.8 °F100 %30.30 inNNE (20°)5.8 mphSnowLight Snow Showers
7:20 AM15.8 °F14.0 °F93 %30.30 in4.3 miNorth (10°)4.6 mphSnowLight Snow Showers
7:50 AM15.8 °F15.8 °F100 %30.30 in6.2 miNorth (10°)5.8 mphSnowLight Snow Showers
8:20 AM15.8 °F14.0 °F93 %30.30 in6.2 miNNE (20°)3.5 mphSnowLight Snow Showers
8:50 AM15.8 °F14.0 °F93 %30.30 in6.2 miNNE (20°)3.5 mphSnowLight Snow Showers
9:20 AM15.8 °F14.0 °F93 %30.30 in6.2 miNNE (30°)3.5 mphSnowLight Snow Showers
10:50 AM15.8 °F14.0 °F93 %30.33 in6.2 miNNE (20°)3.5 mphSnowLight Snow Showers
11:20 AM15.8 °F14.0 °F93 %30.33 in6.2 miNorth (10°)3.5 mphSnowLight Snow Showers
11:50 AM15.8 °F14.0 °F93 %30.33 in6.2 miNorth (10°)4.6 mphScattered Clouds
12:20 PM15.8 °F15.8 °F100 %30.33 inNorth (10°)4.6 mphClear
12:50 PM17.6 °F15.8 °F93 %30.33 in6.2 miNorth (10°)3.5 mphScattered Clouds
1:20 PM19.4 °F17.6 °F93 %30.33 in6.2 miNorth (10°)3.5 mphOvercast
1:50 PM19.4 °F17.6 °F93 %30.33 in6.2 miNorth (10°)3.5 mphOvercast
2:20 PM19.4 °F17.6 °F93 %30.33 in6.2 miNorth (360°)2.3 mphOvercast
2:50 PM21.2 °F19.4 °F93 %30.33 in6.2 miNorth (10°)2.3 mphOvercast
3:20 PM21.2 °F19.4 °F93 %30.33 in6.2 miNorth (10°)4.6 mphOvercast
3:50 PM21.2 °F19.4 °F93 %30.33 in6.2 miNNE (30°)3.5 mphOvercast
4:20 PM21.2 °F19.4 °F93 %30.33 in6.2 miNNE (20°)5.8 mphOvercast
4:50 PM21.2 °F19.4 °F93 %30.36 in6.2 miNNE (30°)4.6 mphOvercast
5:20 PM21.2 °F19.4 °F93 %30.36 in6.2 miNNE (30°)3.5 mphOvercast
5:50 PM21.2 °F19.4 °F93 %30.36 in6.2 miNorth (10°)4.6 mphOvercast
6:20 PM21.2 °F19.4 °F93 %30.36 in6.2 miENE (70°)1.2 mphOvercast
6:50 PM21.2 °F21.2 °F100 %30.36 in6.2 miENE (70°)2.3 mphOvercast
7:20 PM23.0 °F21.2 °F93 %30.36 in6.2 miENE (60°)2.3 mphOvercast
7:50 PM23.0 °F21.2 °F93 %30.36 in6.2 miENE (60°)3.5 mphMostly Cloudy
8:20 PM23.0 °F21.2 °F93 %30.36 in6.2 miNE (50°)3.5 mphOvercast
8:50 PM23.0 °F21.2 °F93 %30.36 in6.2 miENE (60°)3.5 mphMostly Cloudy
9:20 PM23.0 °F21.2 °F93 %30.39 in6.2 miNE (50°)3.5 mphOvercast
9:50 PM23.0 °F21.2 °F93 %30.39 in6.2 miENE (60°)3.5 mphOvercast
10:20 PM23.0 °F23.0 °F100 %30.39 in6.2 miENE (70°)3.5 mphOvercast
10:50 PM21.2 °F21.2 °F100 %30.39 in6.2 miNE (40°)4.6 mphMostly Cloudy
11:20 PM23.0 °F21.2 °F93 %30.39 in6.2 miENE (60°)3.5 mphMostly Cloudy
11:50 PM23.0 °F23.0 °F100 %30.39 in6.2 miENE (70°)5.8 mphOvercast
Hourly data recorded from EFKK, located miles away from Kokkola, Finland




STORIES FROM OUR PARTNERS